Time,TemperatureF,DewpointF,PressureIn,WindDirection,WindDirectionDegrees,WindSpeedMPH,WindSpeedGustMPH,Humidity,HourlyPrecipIn,Conditions,Clouds,dailyrainin,SoftwareType,DateUTC
2013-03-28 00:02:00,41.0,28.0,30.37,NE,49,9.0,14.0,60,0.00,,,0.01,,2013-03-28 04:02:00,
2013-03-28 00:12:00,41.0,28.0,30.37,NE,49,9.0,14.0,60,0.00,,,0.01,,2013-03-28 04:12:00,
2013-03-28 00:23:00,41.0,28.0,30.37,SSE,149,3.0,5.0,60,0.00,,,0.00,,2013-03-28 04:23:00,
2013-03-28 00:32:00,40.0,28.0,30.37,East,89,4.0,5.0,61,0.00,,,0.00,,2013-03-28 04:32:00,
2013-03-28 00:42:00,40.0,28.0,30.37,East,89,4.0,5.0,61,0.00,,,0.00,,2013-03-28 04:42:00,
2013-03-28 00:52:00,40.0,28.0,30.37,WNW,295,5.0,10.0,62,0.00,,,0.00,,2013-03-28 04:52:00,
2013-03-28 01:02:00,40.0,27.0,30.37,NW,316,5.0,10.0,60,0.00,,,0.00,,2013-03-28 05:02:00,
2013-03-28 01:12:00,40.0,27.0,30.37,NW,316,5.0,10.0,60,0.00,,,0.00,,2013-03-28 05:12:00,
2013-03-28 01:22:00,40.0,27.0,30.37,SSW,193,5.0,7.0,60,0.00,,,0.00,,2013-03-28 05:22:00,
2013-03-28 01:32:00,40.0,28.0,30.36,NNW,329,3.0,4.0,61,0.00,,,0.00,,2013-03-28 05:32:00,
2013-03-28 01:42:00,40.0,28.0,30.36,NNW,329,3.0,4.0,61,0.00,,,0.00,,2013-03-28 05:42:00,
2013-03-28 01:52:00,40.0,27.0,30.36,ESE,118,4.0,6.0,60,0.00,,,0.00,,2013-03-28 05:52:00,
2013-03-28 02:02:00,39.0,26.0,30.35,West,280,4.0,8.0,60,0.00,,,0.00,,2013-03-28 06:02:00,
2013-03-28 02:12:00,39.0,26.0,30.35,West,280,4.0,8.0,60,0.00,,,0.00,,2013-03-28 06:12:00,
2013-03-28 02:22:00,39.0,26.0,30.35,SSE,160,2.0,3.0,60,0.00,,,0.00,,2013-03-28 06:22:00,
2013-03-28 02:32:00,40.0,27.0,30.35,ESE,120,5.0,9.0,60,0.00,,,0.00,,2013-03-28 06:32:00,
2013-03-28 02:42:00,40.0,27.0,30.35,ESE,120,5.0,9.0,60,0.00,,,0.00,,2013-03-28 06:42:00,
2013-03-28 02:52:00,40.0,26.0,30.35,SE,129,10.0,17.0,58,0.00,,,0.00,,2013-03-28 06:52:00,
2013-03-28 03:02:00,40.0,27.0,30.35,NNW,338,1.0,2.0,59,0.00,,,0.00,,2013-03-28 07:02:00,
2013-03-28 03:12:00,40.0,27.0,30.35,NNW,338,1.0,2.0,59,0.00,,,0.00,,2013-03-28 07:12:00,
2013-03-28 03:22:00,39.0,27.0,30.35,NW,307,5.0,11.0,61,0.00,,,0.00,,2013-03-28 07:22:00,
2013-03-28 03:32:00,39.0,26.0,30.35,NW,309,5.0,9.0,60,0.00,,,0.00,,2013-03-28 07:32:00,
2013-03-28 03:42:00,39.0,26.0,30.35,NW,309,5.0,9.0,60,0.00,,,0.00,,2013-03-28 07:42:00,
2013-03-28 03:52:00,39.0,27.0,30.35,WSW,253,2.0,3.0,61,0.00,,,0.00,,2013-03-28 07:52:00,
2013-03-28 04:02:00,39.0,26.0,30.35,North,359,4.0,7.0,60,0.00,,,0.00,,2013-03-28 08:02:00,
2013-03-28 04:12:00,39.0,26.0,30.35,North,359,4.0,7.0,60,0.00,,,0.00,,2013-03-28 08:12:00,
2013-03-28 04:21:00,39.0,27.0,30.35,NE,49,0.0,0.0,61,0.00,,,0.00,,2013-03-28 08:21:00,
2013-03-28 04:32:00,37.0,27.0,30.34,South,186,4.0,5.0,68,0.00,,,0.00,,2013-03-28 08:32:00,
2013-03-28 04:42:00,37.0,27.0,30.34,South,186,4.0,5.0,68,0.00,,,0.00,,2013-03-28 08:42:00,
2013-03-28 04:52:00,36.0,26.0,30.35,SW,226,1.0,4.0,68,0.00,,,0.00,,2013-03-28 08:52:00,
2013-03-28 05:02:00,36.0,27.0,30.36,SW,214,5.0,6.0,69,0.00,,,0.00,,2013-03-28 09:02:00,
2013-03-28 05:12:00,36.0,27.0,30.36,SW,214,5.0,6.0,69,0.00,,,0.00,,2013-03-28 09:12:00,
2013-03-28 05:22:00,36.0,27.0,30.36,SSW,211,0.0,2.0,70,0.00,,,0.00,,2013-03-28 09:22:00,
2013-03-28 05:32:00,36.0,27.0,30.36,SSW,207,2.0,4.0,69,0.00,,,0.00,,2013-03-28 09:32:00,
2013-03-28 05:42:00,35.0,27.0,30.36,South,181,0.0,0.0,71,0.00,,,0.00,,2013-03-28 09:42:00,
2013-03-28 05:52:00,35.0,27.0,30.36,South,181,0.0,0.0,71,0.00,,,0.00,,2013-03-28 09:52:00,
2013-03-28 06:03:00,35.0,26.0,30.36,SW,219,0.0,0.0,70,0.00,,,0.00,,2013-03-28 10:03:00,
2013-03-28 06:12:00,35.0,26.0,30.36,SW,219,0.0,0.0,70,0.00,,,0.00,,2013-03-28 10:12:00,
2013-03-28 06:22:00,36.0,27.0,30.37,West,270,2.0,3.0,69,0.00,,,0.00,,2013-03-28 10:22:00,
2013-03-28 06:33:00,35.0,26.0,30.37,NNE,23,3.0,8.0,70,0.00,,,0.00,,2013-03-28 10:33:00,
2013-03-28 06:42:00,35.0,26.0,30.37,NNE,23,3.0,8.0,70,0.00,,,0.00,,2013-03-28 10:42:00,
2013-03-28 06:52:00,34.0,26.0,30.38,SSW,195,1.0,3.0,73,0.00,,,0.00,,2013-03-28 10:52:00,
2013-03-28 07:02:00,34.0,26.0,30.38,WSW,256,1.0,3.0,73,0.00,,,0.00,,2013-03-28 11:02:00,
2013-03-28 07:12:00,34.0,26.0,30.38,WSW,256,1.0,3.0,73,0.00,,,0.00,,2013-03-28 11:12:00,
2013-03-28 07:23:00,33.0,26.0,30.39,North,8,0.0,0.0,75,0.00,,,0.00,,2013-03-28 11:23:00,
2013-03-28 07:32:00,32.0,27.0,30.40,WNW,293,1.0,2.0,80,0.00,,,0.00,,2013-03-28 11:32:00,
2013-03-28 07:42:00,32.0,27.0,30.40,WNW,293,1.0,2.0,80,0.00,,,0.00,,2013-03-28 11:42:00,
2013-03-28 07:52:00,32.0,27.0,30.39,North,1,4.0,6.0,82,0.00,,,0.00,,2013-03-28 11:52:00,
2013-03-28 08:02:00,34.0,27.0,30.40,West,270,4.0,7.0,75,0.00,,,0.00,,2013-03-28 12:02:00,
2013-03-28 08:12:00,34.0,27.0,30.40,West,270,4.0,7.0,75,0.00,,,0.00,,2013-03-28 12:12:00,
2013-03-28 08:22:00,36.0,26.0,30.40,NW,314,2.0,4.0,68,0.00,,,0.00,,2013-03-28 12:22:00,
2013-03-28 08:32:00,39.0,27.0,30.41,ESE,117,1.0,4.0,63,0.00,,,0.00,,2013-03-28 12:32:00,
2013-03-28 08:42:00,39.0,27.0,30.41,ESE,117,1.0,4.0,63,0.00,,,0.00,,2013-03-28 12:42:00,
2013-03-28 08:52:00,39.0,27.0,30.41,North,8,9.0,15.0,61,0.00,,,0.00,,2013-03-28 12:52:00,
2013-03-28 09:02:00,40.0,27.0,30.42,SE,125,8.0,14.0,59,0.00,,,0.00,,2013-03-28 13:02:00,
2013-03-28 09:12:00,40.0,27.0,30.42,SE,125,8.0,14.0,59,0.00,,,0.00,,2013-03-28 13:12:00,
2013-03-28 09:22:00,40.0,26.0,30.42,NE,51,6.0,10.0,58,0.00,,,0.00,,2013-03-28 13:22:00,
2013-03-28 09:32:00,41.0,27.0,30.42,NW,318,4.0,10.0,58,0.00,,,0.00,,2013-03-28 13:32:00,
2013-03-28 09:42:00,41.0,27.0,30.42,NW,318,4.0,10.0,58,0.00,,,0.00,,2013-03-28 13:42:00,
2013-03-28 09:52:00,42.0,28.0,30.42,ESE,114,4.0,6.0,57,0.00,,,0.00,,2013-03-28 13:52:00,
2013-03-28 10:02:00,43.0,27.0,30.42,WNW,301,7.0,9.0,53,0.00,,,0.00,,2013-03-28 14:02:00,
2013-03-28 10:12:00,43.0,27.0,30.42,WNW,301,7.0,9.0,53,0.00,,,0.00,,2013-03-28 14:12:00,
2013-03-28 10:22:00,44.0,27.0,30.42,NE,44,6.0,9.0,50,0.00,,,0.00,,2013-03-28 14:22:00,
2013-03-28 10:32:00,45.0,27.0,30.42,North,8,4.0,8.0,50,0.00,,,0.00,,2013-03-28 14:32:00,
2013-03-28 10:42:00,45.0,27.0,30.42,North,8,4.0,8.0,50,0.00,,,0.00,,2013-03-28 14:42:00,
2013-03-28 10:52:00,46.0,26.0,30.42,NE,37,4.0,7.0,46,0.00,,,0.00,,2013-03-28 14:52:00,
2013-03-28 11:02:00,47.0,26.0,30.42,NE,55,3.0,6.0,44,0.00,,,0.00,,2013-03-28 15:02:00,
2013-03-28 11:12:00,47.0,26.0,30.42,NE,55,3.0,6.0,44,0.00,,,0.00,,2013-03-28 15:12:00,
2013-03-28 11:22:00,47.0,27.0,30.42,West,274,7.0,12.0,45,0.00,,,0.00,,2013-03-28 15:22:00,
2013-03-28 11:33:00,49.0,26.0,30.41,NW,304,5.0,7.0,40,0.00,,,0.00,,2013-03-28 15:33:00,
2013-03-28 11:43:00,49.0,26.0,30.41,NW,304,5.0,7.0,40,0.00,,,0.00,,2013-03-28 15:43:00,
2013-03-28 11:53:00,50.0,25.0,30.41,West,278,7.0,12.0,38,0.00,,,0.00,,2013-03-28 15:53:00,
2013-03-28 12:02:00,50.0,25.0,30.40,NNW,347,6.0,12.0,38,0.00,,,0.00,,2013-03-28 16:02:00,
2013-03-28 12:12:00,50.0,25.0,30.40,NNW,347,6.0,12.0,38,0.00,,,0.00,,2013-03-28 16:12:00,
2013-03-28 12:23:00,51.0,24.0,30.40,WNW,297,5.0,9.0,35,0.00,,,0.00,,2013-03-28 16:23:00,
2013-03-28 12:32:00,53.0,25.0,30.40,NNW,336,7.0,12.0,34,0.00,,,0.00,,2013-03-28 16:32:00,
2013-03-28 12:42:00,53.0,25.0,30.40,NNW,336,7.0,12.0,34,0.00,,,0.00,,2013-03-28 16:42:00,
2013-03-28 12:52:00,53.0,27.0,30.40,NE,53,6.0,9.0,37,0.00,,,0.00,,2013-03-28 16:52:00,
2013-03-28 13:02:00,52.0,24.0,30.39,North,11,7.0,11.0,33,0.00,,,0.00,,2013-03-28 17:02:00,
2013-03-28 13:12:00,52.0,24.0,30.39,North,11,7.0,11.0,33,0.00,,,0.00,,2013-03-28 17:12:00,
2013-03-28 13:22:00,54.0,25.0,30.38,East,94,8.0,13.0,32,0.00,,,0.00,,2013-03-28 17:22:00,
2013-03-28 13:32:00,54.0,25.0,30.38,ENE,63,4.0,7.0,32,0.00,,,0.00,,2013-03-28 17:32:00,
2013-03-28 13:42:00,54.0,25.0,30.38,ENE,63,4.0,7.0,32,0.00,,,0.00,,2013-03-28 17:42:00,
2013-03-28 13:52:00,57.0,25.0,30.38,WNW,290,3.0,5.0,29,0.00,,,0.00,,2013-03-28 17:52:00,
2013-03-28 14:02:00,56.0,27.0,30.37,NE,45,0.0,1.0,33,0.00,,,0.00,,2013-03-28 18:02:00,
2013-03-28 14:12:00,56.0,27.0,30.37,NE,45,0.0,1.0,33,0.00,,,0.00,,2013-03-28 18:12:00,
2013-03-28 14:22:00,58.0,26.0,30.37,NNE,27,3.0,7.0,29,0.00,,,0.00,,2013-03-28 18:22:00,
2013-03-28 14:32:00,58.0,24.0,30.35,WSW,240,5.0,7.0,27,0.00,,,0.00,,2013-03-28 18:32:00,
2013-03-28 14:42:00,58.0,24.0,30.35,WSW,240,5.0,7.0,27,0.00,,,0.00,,2013-03-28 18:42:00,
2013-03-28 14:52:00,57.0,23.0,30.35,ENE,59,8.0,10.0,27,0.00,,,0.00,,2013-03-28 18:52:00,
2013-03-28 15:02:00,58.0,23.0,30.34,SSE,150,3.0,6.0,26,0.00,,,0.00,,2013-03-28 19:02:00,
2013-03-28 15:12:00,58.0,23.0,30.34,SSE,150,3.0,6.0,26,0.00,,,0.00,,2013-03-28 19:12:00,
2013-03-28 15:22:00,59.0,23.0,30.34,NNW,333,8.0,12.0,25,0.00,,,0.00,,2013-03-28 19:22:00,
2013-03-28 15:33:00,58.0,20.0,30.32,NNE,23,4.0,8.0,23,0.00,,,0.00,,2013-03-28 19:33:00,
2013-03-28 15:42:00,58.0,20.0,30.32,NNE,23,4.0,8.0,23,0.00,,,0.00,,2013-03-28 19:42:00,
2013-03-28 15:52:00,60.0,22.0,30.31,SSE,158,4.0,7.0,23,0.00,,,0.00,,2013-03-28 19:52:00,
2013-03-28 16:03:00,60.0,23.0,30.30,NNE,15,2.0,5.0,24,0.00,,,0.00,,2013-03-28 20:03:00,
2013-03-28 16:12:00,60.0,23.0,30.30,NNE,15,2.0,5.0,24,0.00,,,0.00,,2013-03-28 20:12:00,
2013-03-28 16:22:00,60.0,23.0,30.30,WSW,239,6.0,10.0,24,0.00,,,0.00,,2013-03-28 20:22:00,
2013-03-28 16:32:00,61.0,24.0,30.30,WNW,284,3.0,8.0,24,0.00,,,0.00,,2013-03-28 20:32:00,
2013-03-28 16:42:00,61.0,24.0,30.30,WNW,284,3.0,8.0,24,0.00,,,0.00,,2013-03-28 20:42:00,
2013-03-28 16:52:00,59.0,23.0,30.30,SE,143,2.0,3.0,25,0.00,,,0.00,,2013-03-28 20:52:00,
2013-03-28 17:02:00,60.0,23.0,30.29,SSW,195,3.0,6.0,24,0.00,,,0.00,,2013-03-28 21:02:00,
2013-03-28 17:12:00,60.0,23.0,30.29,SSW,195,3.0,6.0,24,0.00,,,0.00,,2013-03-28 21:12:00,
2013-03-28 17:22:00,58.0,22.0,30.30,ESE,110,0.0,1.0,25,0.00,,,0.00,,2013-03-28 21:22:00,
2013-03-28 17:32:00,58.0,23.0,30.29,North,1,3.0,10.0,26,0.00,,,0.00,,2013-03-28 21:32:00,
2013-03-28 17:43:00,58.0,23.0,30.29,North,1,3.0,10.0,26,0.00,,,0.00,,2013-03-28 21:43:00,
2013-03-28 17:53:00,58.0,23.0,30.30,WNW,288,5.0,12.0,26,0.00,,,0.00,,2013-03-28 21:53:00,
2013-03-28 18:03:00,58.0,23.0,30.30,West,270,3.0,6.0,26,0.00,,,0.00,,2013-03-28 22:03:00,
2013-03-28 18:12:00,58.0,23.0,30.30,West,270,3.0,6.0,26,0.00,,,0.00,,2013-03-28 22:12:00,
2013-03-28 18:22:00,57.0,22.0,30.31,NNW,328,3.0,8.0,26,0.00,,,0.00,,2013-03-28 22:22:00,
2013-03-28 18:32:00,56.0,23.0,30.31,SE,145,6.0,8.0,28,0.00,,,0.00,,2013-03-28 22:32:00,
2013-03-28 18:42:00,56.0,23.0,30.31,SE,145,6.0,8.0,28,0.00,,,0.00,,2013-03-28 22:42:00,
2013-03-28 18:52:00,55.0,23.0,30.32,ENE,75,6.0,9.0,28,0.00,,,0.00,,2013-03-28 22:52:00,
2013-03-28 19:03:00,55.0,23.0,30.32,North,359,3.0,7.0,29,0.00,,,0.00,,2013-03-28 23:03:00,
2013-03-28 19:12:00,55.0,23.0,30.32,North,359,3.0,7.0,29,0.00,,,0.00,,2013-03-28 23:12:00,
2013-03-28 19:22:00,54.0,23.0,30.33,North,353,4.0,8.0,30,0.00,,,0.00,,2013-03-28 23:22:00,
2013-03-28 19:32:00,53.0,22.0,30.34,West,281,5.0,9.0,30,0.00,,,0.00,,2013-03-28 23:32:00,
2013-03-28 19:42:00,53.0,22.0,30.34,West,281,5.0,9.0,30,0.00,,,0.00,,2013-03-28 23:42:00,
2013-03-28 19:53:00,53.0,24.0,30.35,SSW,194,2.0,4.0,32,0.00,,,0.00,,2013-03-28 23:53:00,
2013-03-28 20:02:00,52.0,22.0,30.35,SE,124,3.0,4.0,31,0.00,,,0.00,,2013-03-29 00:02:00,
2013-03-28 20:12:00,52.0,22.0,30.35,SE,124,3.0,4.0,31,0.00,,,0.00,,2013-03-29 00:12:00,
2013-03-28 20:22:00,52.0,27.0,30.36,NNW,336,3.0,4.0,37,0.00,,,0.00,,2013-03-29 00:22:00,
2013-03-28 20:32:00,50.0,25.0,30.37,NNE,14,4.0,5.0,38,0.00,,,0.00,,2013-03-29 00:32:00,
2013-03-28 20:42:00,50.0,25.0,30.37,NNE,14,4.0,5.0,38,0.00,,,0.00,,2013-03-29 00:42:00,
2013-03-28 20:52:00,50.0,25.0,30.37,NE,35,3.0,8.0,38,0.00,,,0.00,,2013-03-29 00:52:00,
2013-03-28 21:02:00,50.0,24.0,30.37,NW,316,4.0,7.0,36,0.00,,,0.00,,2013-03-29 01:02:00,
2013-03-28 21:12:00,50.0,24.0,30.37,NW,316,4.0,7.0,36,0.00,,,0.00,,2013-03-29 01:12:00,
2013-03-28 21:22:00,50.0,23.0,30.38,NW,311,6.0,9.0,35,0.00,,,0.00,,2013-03-29 01:22:00,
2013-03-28 21:32:00,50.0,23.0,30.39,North,352,4.0,6.0,35,0.00,,,0.00,,2013-03-29 01:32:00,
2013-03-28 21:42:00,50.0,23.0,30.39,North,352,4.0,6.0,35,0.00,,,0.00,,2013-03-29 01:42:00,
2013-03-28 21:52:00,49.0,26.0,30.39,North,352,2.0,3.0,40,0.00,,,0.00,,2013-03-29 01:52:00,
2013-03-28 22:02:00,47.0,27.0,30.39,NNE,27,3.0,6.0,45,0.00,,,0.00,,2013-03-29 02:02:00,
2013-03-28 22:12:00,47.0,27.0,30.39,NNE,27,3.0,6.0,45,0.00,,,0.00,,2013-03-29 02:12:00,
2013-03-28 22:22:00,47.0,25.0,30.40,NNE,31,1.0,3.0,41,0.00,,,0.00,,2013-03-29 02:22:00,
2013-03-28 22:32:00,47.0,25.0,30.40,SE,138,6.0,9.0,41,0.00,,,0.00,,2013-03-29 02:32:00,
2013-03-28 22:42:00,47.0,25.0,30.40,SE,138,6.0,9.0,41,0.00,,,0.00,,2013-03-29 02:42:00,
2013-03-28 22:53:00,48.0,26.0,30.41,WSW,256,0.0,0.0,42,0.00,,,0.00,,2013-03-29 02:53:00,
2013-03-28 23:02:00,47.0,26.0,30.41,WNW,283,1.0,2.0,43,0.00,,,0.00,,2013-03-29 03:02:00,
2013-03-28 23:12:00,47.0,26.0,30.41,WNW,283,1.0,2.0,43,0.00,,,0.00,,2013-03-29 03:12:00,
2013-03-28 23:22:00,45.0,25.0,30.41,SW,231,0.0,0.0,46,0.00,,,0.00,,2013-03-29 03:22:00,
2013-03-28 23:32:00,42.0,26.0,30.41,NNE,18,3.0,4.0,53,0.00,,,0.00,,2013-03-29 03:32:00,
2013-03-28 23:42:00,42.0,26.0,30.41,NNE,18,3.0,4.0,53,0.00,,,0.00,,2013-03-29 03:42:00,
2013-03-28 23:53:00,42.0,26.0,30.41,NNW,347,2.0,3.0,52,0.00,,,0.00,,2013-03-29 03:53:00,